DECAYED

STARLINK-30420, 57846 (Decayed)

Orbit data source: Space-Track

STARLINK-30420, 57846 was a payload satellite owned by SpaceX/Seattle (US) in LEO that was launched on Tue, 12 Sep 2023 UTC via an FALCON 9 launch vehicle from the Air Force Western Test Range (AFWTR). Payload-class satellites include a variety of spacecraft equipped with specific instruments for various scientific and technological missions. These include communications satellites like Starlink; space stations such as the ISS; scientific satellites like the Hubble; Earth observation satellites from companies like Planet Labs, Umbra, and HawkEye 360; GPS; miniature CubeSats for education and research; and military/defense satellites.

Not visible in the next 10 days
Identifier
57846, 2023-141G
Orbit
Decayed
Country
Flag of USUS
Related business
Manufacturer
SpaceX/Seattle
Mission
Decayed Commercial Communications
Bus & Motor
STARLINK V2M, Unknown motor
Mass
730 kg wet, ~700 kg dry
Launch date (UTC)
2023-09-12 (3 years ago)
Launch vehicle
FALCON 9
Launch site
Air Force Western Test Range (AFWTR)
Object type
Payload
Rocket body
Debris
Shape & HBR
Box + 2 Pan, 17.7 m
Radar Cross Section
33.884 m², Large (>1 m²)

Expand to show TLE details & history
Last TLE update: 1 year ago

TLE from 1 year ago
0 STARLINK-30420
1 57846U 23141G   24366.37079123  .36557156  12305-4  49776-2 0  9992
2 57846  53.1143 120.6350 0006992 332.6458  95.8516 16.34427977 74200
Epoch: 2024-12-31T08:53Z
TLE epoch observation values (Epoch: 2024-12-31T08:53:56.362Z)
Latitude
48.2753°
Longitude
-56.33565°
Altitude
186.519 km
Speed
7.8 km/s
True Right ascension
11h 49m 42s
True Declination
48° 05' 22"
Sunlit
Object was in full shadow at epoch
Visualization orbit readout
Latitude
Unknown
Longitude
Unknown
Altitude
Unknown
Speed
Unknown
Apparent Right ascension
Unknown
Apparent Declination
Unknown
Sunlit
N/A
Visualization observer readout
Local Sidereal Time
21:31:40
Azimuth
Unknown
Elevation
Unknown
Doppler factor
Unknown
Orbital elements
Apogee altitude
185.528 km
Perigee altitude
176.356 km
Semi-major axis
6,559.079 km
Eccentricity
0.0007
Inclination
53.1143°
RAAN
120.635°
Arg. of periapsis
332.6458°
True anomaly
95.9313°
Mean anomaly
95.8516°
Eccentric anomaly
95.89145°
Mean motion
4.08582 °/min
Orbital period
88.11 mins
BSTAR
0.0049776
Loading maneuver chart data...
Computing Atmospheric mass density...
Loading historical data...
Loading historical data...
Loading historical data...
Loading historical data...
Loading historical data...
Loading historical data...
Loading historical data...

Documentation

Showing up to 5 results
|